Location: Tauranga
(37.6860°S, 176.1670°E)
Time: 23:25:48
(UTC+13:00)

ADEOS Rocket - Pass Details

Date: 24 January 2019
Orbit: 859 x 1307 km, 98.7° (Epoch: 22 February)

Event Time Altitude Azimuth Distance (km) Brightness Sun altitude
Exits shadow 21:18:52 10° 55° (NE) 2,543 4.5 -8.5°
Maximum altitude 21:23:35 29° 113° (ESE) 1,547 3.8 -9.3°
Drops below altitude 10° 21:28:17 10° 171° (S) 2,527 5.5 -10.1°
Sets 21:30:56 0° 181° (S) 3,481 6.4 -10.5°
